Location: Famechon
(49.7599°N, 2.0615°E)
Time: 07:10:59
(UTC+00:00)

Cosmos 1461 - Pass Details

Date: 03 February 2023
Orbit: 492 x 644 km, 65.0° (Epoch: 22 March)

Event Time Altitude Azimuth Distance (km) Brightness Sun altitude
Rises 17:37:38 0° 183° (S) 2,736 6.6 -8.1°
Reaches altitude 10° 17:40:04 10° 170° (S) 1,874 5.6 -8.5°
Maximum altitude 17:43:32 25° 115° (ESE) 1,209 4.1 -9.0°
Enters shadow 17:46:43 12° 64° (ENE) 1,825 4.8 -9.5°
